TCW757 GVBA-LPPT

Flight info

Callsign TCW757
Flight time 3h 32m
Altitude 35000
Route DIMKI1J DIMKI DCT IPERA N873 UDATI/N0447F370 N873 ODEGI/N0446F360 N873 GDV N858 VASTO DCT BAROK DCT VATZI
Aircraft A321/M-SDE3FGHIRWY/LB1

Departure

Time 2026-04-19 19:32
Airport Aristides Pereira International Airport (GVBA)

Arrival

Time 2026-04-19 23:05
Airport Lisbon Humberto Delgado Airport (LPPT)
Time Latitude Longitude Altitude Speed Heading
2026-04-19 19:08 16.13518 -22.89118 70 ft 0 kts 284°
2026-04-19 19:21 16.13516 -22.89110 65 ft 4 kts 283°
2026-04-19 19:21 16.13510 -22.89073 70 ft 4 kts 272°
2026-04-19 19:21 16.13512 -22.89046 67 ft 4 kts 249°
2026-04-19 19:21 16.13524 -22.89028 72 ft 2 kts 198°
2026-04-19 19:22 16.13525 -22.89028 72 ft 2 kts 197°
2026-04-19 19:28 16.13524 -22.89029 75 ft 1 kts 197°
2026-04-19 19:28 16.13480 -22.89021 75 ft 12 kts 142°
2026-04-19 19:28 16.13425 -22.88967 73 ft 11 kts 157°
2026-04-19 19:29 16.13353 -22.88975 66 ft 12 kts 195°
2026-04-19 19:29 16.13270 -22.89000 63 ft 13 kts 197°
2026-04-19 19:29 16.13187 -22.89026 69 ft 12 kts 197°
2026-04-19 19:29 16.13115 -22.89048 68 ft 10 kts 196°
2026-04-19 19:30 16.13054 -22.89067 65 ft 9 kts 197°
2026-04-19 19:30 16.12993 -22.89086 64 ft 10 kts 197°
2026-04-19 19:30 16.12924 -22.89115 60 ft 11 kts 225°
2026-04-19 19:30 16.12875 -22.89166 67 ft 9 kts 196°
2026-04-19 19:31 16.12847 -22.89155 68 ft 2 kts 110°
2026-04-19 19:31 16.12853 -22.89136 66 ft 2 kts 44°
2026-04-19 19:31 16.12869 -22.89125 66 ft 3 kts 33°
2026-04-19 19:31 16.12882 -22.89119 64 ft 0 kts 16°
2026-04-19 19:32 16.12964 -22.89096 66 ft 43 kts 16°
2026-04-19 19:32 16.13474 -22.88938 68 ft 106 kts 16°
2026-04-19 19:32 16.14330 -22.88673 239 ft 138 kts 15°
2026-04-19 19:32 16.15226 -22.88364 846 ft 137 kts 19°
2026-04-19 19:33 16.16125 -22.88012 1398 ft 138 kts 21°
2026-04-19 19:33 16.17074 -22.87651 1731 ft 154 kts 19°
2026-04-19 19:33 16.18152 -22.87253 1888 ft 174 kts 18°
2026-04-19 19:33 16.19350 -22.86817 2019 ft 193 kts 19°
2026-04-19 19:34 16.20678 -22.86336 2182 ft 211 kts 19°
2026-04-19 19:34 16.22135 -22.85811 2371 ft 231 kts 18°
2026-04-19 19:34 16.23723 -22.85242 2747 ft 247 kts 18°
2026-04-19 19:34 16.25389 -22.84646 3259 ft 258 kts 17°
2026-04-19 19:35 16.27111 -22.84032 3828 ft 264 kts 16°
2026-04-19 19:35 16.28876 -22.83402 4386 ft 271 kts 17°
2026-04-19 19:35 16.30678 -22.82755 4934 ft 277 kts 16°
2026-04-19 19:35 16.32514 -22.82097 5514 ft 281 kts 15°
2026-04-19 19:36 16.34370 -22.81434 6094 ft 284 kts 18°
2026-04-19 19:36 16.36251 -22.80760 6674 ft 287 kts 17°
2026-04-19 19:36 16.38158 -22.80078 7230 ft 291 kts 16°
2026-04-19 19:36 16.40086 -22.79389 7800 ft 294 kts 17°
2026-04-19 19:37 16.42030 -22.78694 8381 ft 297 kts 16°
2026-04-19 19:37 16.44003 -22.77986 8957 ft 301 kts 15°
2026-04-19 19:37 16.45965 -22.77283 9547 ft 304 kts 15°
2026-04-19 19:37 16.48006 -22.76552 10062 ft 310 kts 15°
2026-04-19 19:38 16.50117 -22.75799 10186 ft 330 kts 16°
2026-04-19 19:38 16.52320 -22.75013 10299 ft 348 kts 16°
2026-04-19 19:38 16.54661 -22.74177 10501 ft 361 kts 16°
2026-04-19 19:38 16.57059 -22.73319 10930 ft 367 kts 16°
2026-04-19 19:39 16.59483 -22.72447 11428 ft 371 kts 16°
2026-04-19 19:39 16.61931 -22.71566 11942 ft 374 kts 17°
2026-04-19 19:39 16.64407 -22.70672 12441 ft 378 kts 16°
2026-04-19 19:39 16.66907 -22.69772 12958 ft 381 kts 17°
2026-04-19 19:40 16.69428 -22.68867 13474 ft 385 kts 17°
2026-04-19 19:40 16.71976 -22.67952 13954 ft 389 kts 16°
2026-04-19 19:40 16.74543 -22.67033 14424 ft 392 kts 16°
2026-04-19 19:40 16.77131 -22.66103 14904 ft 394 kts 16°
2026-04-19 19:41 16.79735 -22.65166 15354 ft 397 kts 16°
2026-04-19 19:41 16.82357 -22.64224 15822 ft 400 kts 15°
2026-04-19 19:41 16.84990 -22.63278 16269 ft 402 kts 15°
2026-04-19 19:41 16.87649 -22.62323 16708 ft 405 kts 15°
2026-04-19 19:42 16.90320 -22.61360 17147 ft 407 kts 15°
2026-04-19 19:42 16.93011 -22.60389 17578 ft 410 kts 15°
2026-04-19 19:42 16.95716 -22.59405 18000 ft 413 kts 15°
2026-04-19 19:42 16.98431 -22.58409 18389 ft 415 kts 15°
2026-04-19 19:43 17.01158 -22.57401 18732 ft 417 kts 15°
2026-04-19 19:43 17.03900 -22.56383 19067 ft 419 kts 15°
2026-04-19 19:43 17.06650 -22.55362 19398 ft 421 kts 15°
2026-04-19 19:43 17.09415 -22.54335 19709 ft 422 kts 15°
2026-04-19 19:44 17.12187 -22.53307 20030 ft 424 kts 15°
2026-04-19 19:44 17.14967 -22.52276 20346 ft 425 kts 15°
2026-04-19 19:44 17.17763 -22.51243 20657 ft 427 kts 15°
2026-04-19 19:44 17.20565 -22.50207 20955 ft 428 kts 15°
2026-04-19 19:45 17.23381 -22.49165 21264 ft 430 kts 15°
2026-04-19 19:45 17.26207 -22.48119 21560 ft 431 kts 14°
2026-04-19 19:45 17.29041 -22.47071 21858 ft 433 kts 14°
2026-04-19 19:45 17.31890 -22.46017 22157 ft 435 kts 14°
2026-04-19 19:46 17.34712 -22.44973 22471 ft 436 kts 14°
2026-04-19 19:46 17.37615 -22.43896 22780 ft 438 kts 14°
2026-04-19 19:46 17.40495 -22.42825 23088 ft 440 kts 14°
2026-04-19 19:46 17.43344 -22.41767 23400 ft 441 kts 14°
2026-04-19 19:47 17.46241 -22.40688 23696 ft 443 kts 14°
2026-04-19 19:47 17.49149 -22.39608 23987 ft 443 kts 14°
2026-04-19 19:47 17.52058 -22.38526 24278 ft 444 kts 14°
2026-04-19 19:47 17.54972 -22.37442 24559 ft 445 kts 14°
2026-04-19 19:48 17.57898 -22.36353 24835 ft 446 kts 14°
2026-04-19 19:48 17.60830 -22.35261 25113 ft 447 kts 13°
2026-04-19 19:48 17.63773 -22.34163 25387 ft 448 kts 13°
2026-04-19 19:48 17.66714 -22.33068 25665 ft 449 kts 13°
2026-04-19 19:49 17.69662 -22.31972 25938 ft 450 kts 13°
2026-04-19 19:49 17.72616 -22.30873 26204 ft 451 kts 12°
2026-04-19 19:49 17.75587 -22.29768 26468 ft 452 kts 12°
2026-04-19 19:49 17.78555 -22.28663 26749 ft 453 kts 12°
2026-04-19 19:50 17.81526 -22.27555 27010 ft 454 kts 13°
2026-04-19 19:50 17.84520 -22.26439 27275 ft 455 kts 12°
2026-04-19 19:50 17.87509 -22.25325 27532 ft 457 kts 12°
2026-04-19 19:50 17.90469 -22.24043 27780 ft 463 kts 18°
2026-04-19 19:51 17.93352 -22.22489 28036 ft 469 kts 22°
2026-04-19 19:51 17.96175 -22.20739 28261 ft 473 kts 24°
2026-04-19 19:51 17.98959 -22.18885 28499 ft 475 kts 25°
2026-04-19 19:51 18.01744 -22.17008 28712 ft 476 kts 25°
2026-04-19 19:52 18.04555 -22.15154 28911 ft 477 kts 24°
2026-04-19 19:52 18.07387 -22.13344 29129 ft 477 kts 22°
2026-04-19 19:52 18.10247 -22.11571 29326 ft 477 kts 22°
2026-04-19 19:52 18.13124 -22.09819 29533 ft 478 kts 22°
2026-04-19 19:53 18.16009 -22.08072 29704 ft 479 kts 22°
2026-04-19 19:53 18.18896 -22.06317 29860 ft 480 kts 22°
2026-04-19 19:53 18.21786 -22.04552 30020 ft 481 kts 22°
2026-04-19 19:53 18.24677 -22.02776 30186 ft 481 kts 22°
2026-04-19 19:54 18.27527 -22.01015 30364 ft 481 kts 22°
2026-04-19 19:54 18.30416 -21.99225 30534 ft 481 kts 21°
2026-04-19 19:54 18.33299 -21.97437 30707 ft 481 kts 21°
2026-04-19 19:54 18.36182 -21.95653 30866 ft 481 kts 21°
2026-04-19 19:55 18.39074 -21.93868 31022 ft 481 kts 21°
2026-04-19 19:55 18.41962 -21.92083 31200 ft 481 kts 20°
2026-04-19 19:55 18.44849 -21.90301 31372 ft 481 kts 20°
2026-04-19 19:55 18.47738 -21.88511 31576 ft 482 kts 20°
2026-04-19 19:56 18.50627 -21.86720 31725 ft 482 kts 20°
2026-04-19 19:56 18.53517 -21.84926 31886 ft 483 kts 20°
2026-04-19 19:56 18.56409 -21.83133 32049 ft 483 kts 20°
2026-04-19 19:56 18.59302 -21.81341 32244 ft 483 kts 19°
2026-04-19 19:57 18.62201 -21.79544 32403 ft 483 kts 19°
2026-04-19 19:57 18.65093 -21.77747 32578 ft 483 kts 19°
2026-04-19 19:57 18.67985 -21.75947 32758 ft 483 kts 19°
2026-04-19 19:57 18.70881 -21.74147 32930 ft 483 kts 18°
2026-04-19 19:58 18.73772 -21.72353 33094 ft 483 kts 18°
2026-04-19 19:58 18.76664 -21.70556 33267 ft 483 kts 18°
2026-04-19 19:58 18.79559 -21.68756 33437 ft 482 kts 17°
2026-04-19 19:58 18.82449 -21.66961 33654 ft 482 kts 18°
2026-04-19 19:59 18.85337 -21.65161 33852 ft 481 kts 17°
2026-04-19 19:59 18.88217 -21.63364 34031 ft 481 kts 17°
2026-04-19 19:59 18.91096 -21.61566 34186 ft 480 kts 17°
2026-04-19 19:59 18.93935 -21.59798 34348 ft 479 kts 17°
2026-04-19 20:00 18.96804 -21.58011 34504 ft 479 kts 17°
2026-04-19 20:00 18.99675 -21.56220 34643 ft 479 kts 17°
2026-04-19 20:00 19.02543 -21.54425 34795 ft 478 kts 17°
2026-04-19 20:00 19.05403 -21.52635 34955 ft 478 kts 16°
2026-04-19 20:01 19.08260 -21.50849 35106 ft 477 kts 16°
2026-04-19 20:01 19.11120 -21.49064 35250 ft 477 kts 16°
2026-04-19 20:01 19.13977 -21.47281 35394 ft 476 kts 16°
2026-04-19 20:01 19.16830 -21.45498 35600 ft 475 kts 17°
2026-04-19 20:02 19.19667 -21.43717 35806 ft 473 kts 17°
2026-04-19 20:02 19.22497 -21.41944 35923 ft 472 kts 17°
2026-04-19 20:02 19.25323 -21.40179 35957 ft 470 kts 17°
2026-04-19 20:03 19.30950 -21.36662 35951 ft 469 kts 17°
2026-04-19 20:03 19.36562 -21.33140 35959 ft 469 kts 17°
2026-04-19 20:04 19.42180 -21.29613 35957 ft 469 kts 17°
2026-04-19 20:04 19.46842 -21.26684 35953 ft 469 kts 17°
2026-04-19 20:05 19.52459 -21.23161 35985 ft 469 kts 17°
2026-04-19 20:05 19.58077 -21.19635 35970 ft 469 kts 17°
2026-04-19 20:06 19.63699 -21.16090 35961 ft 469 kts 17°
2026-04-19 20:06 19.69344 -21.12546 35977 ft 475 kts 18°
2026-04-19 20:07 19.75059 -21.08946 35977 ft 478 kts 18°
2026-04-19 20:07 19.80727 -21.05360 35991 ft 476 kts 18°
2026-04-19 20:08 19.86399 -21.01776 35979 ft 472 kts 18°
2026-04-19 20:08 19.92023 -20.98212 35965 ft 469 kts 18°
2026-04-19 20:09 19.97640 -20.94659 35967 ft 469 kts 18°
2026-04-19 20:09 20.03259 -20.91106 35967 ft 470 kts 18°
2026-04-19 20:10 20.08866 -20.87543 35966 ft 470 kts 18°
2026-04-19 20:10 20.14478 -20.83985 35964 ft 469 kts 18°
2026-04-19 20:11 20.20087 -20.80430 35979 ft 469 kts 19°
2026-04-19 20:11 20.25700 -20.76873 35974 ft 469 kts 19°
2026-04-19 20:12 20.31304 -20.73314 35971 ft 469 kts 19°
2026-04-19 20:12 20.36909 -20.69745 35968 ft 469 kts 19°
2026-04-19 20:13 20.42505 -20.66172 35967 ft 469 kts 19°
2026-04-19 20:13 20.48102 -20.62593 35966 ft 469 kts 19°
2026-04-19 20:14 20.53701 -20.59010 35988 ft 469 kts 19°
2026-04-19 20:14 20.59269 -20.55450 35981 ft 470 kts 19°
2026-04-19 20:15 20.64875 -20.51865 35972 ft 470 kts 19°
2026-04-19 20:15 20.70475 -20.48269 35971 ft 469 kts 19°
2026-04-19 20:16 20.76072 -20.44675 35965 ft 469 kts 20°
2026-04-19 20:16 20.81675 -20.41084 35961 ft 470 kts 20°
2026-04-19 20:17 20.87280 -20.37487 35993 ft 470 kts 20°
2026-04-19 20:17 20.92891 -20.33879 35981 ft 471 kts 20°
2026-04-19 20:18 20.98503 -20.30260 35971 ft 471 kts 20°
2026-04-19 20:18 21.04115 -20.26643 35967 ft 471 kts 20°
2026-04-19 20:19 21.09731 -20.23023 35963 ft 471 kts 20°
2026-04-19 20:19 21.15342 -20.19394 35961 ft 471 kts 20°
2026-04-19 20:20 21.20953 -20.15765 35989 ft 471 kts 21°
2026-04-19 20:20 21.26576 -20.12131 35988 ft 472 kts 21°
2026-04-19 20:21 21.32198 -20.08490 35972 ft 472 kts 21°
2026-04-19 20:21 21.37784 -20.04874 35964 ft 472 kts 21°
2026-04-19 20:22 21.43405 -20.01230 35960 ft 472 kts 21°
2026-04-19 20:22 21.49024 -19.97582 35965 ft 472 kts 21°
2026-04-19 20:23 21.54641 -19.93927 35991 ft 472 kts 21°
2026-04-19 20:23 21.60258 -19.90272 35977 ft 472 kts 22°
2026-04-19 20:24 21.65879 -19.86615 35973 ft 472 kts 21°
2026-04-19 20:24 21.71498 -19.82955 35968 ft 472 kts 22°
2026-04-19 20:25 21.77116 -19.79289 35969 ft 472 kts 22°
2026-04-19 20:25 21.82734 -19.75620 35969 ft 472 kts 22°
2026-04-19 20:26 21.88347 -19.71951 35993 ft 472 kts 22°
2026-04-19 20:26 21.93976 -19.68280 35983 ft 472 kts 22°
2026-04-19 20:27 21.99584 -19.64620 35974 ft 471 kts 22°
2026-04-19 20:27 22.05182 -19.60936 35973 ft 471 kts 22°
2026-04-19 20:28 22.10780 -19.57263 35966 ft 471 kts 22°
2026-04-19 20:28 22.16379 -19.53596 35968 ft 471 kts 22°
2026-04-19 20:29 22.21936 -19.49944 35996 ft 471 kts 22°
2026-04-19 20:29 22.27522 -19.46266 35960 ft 469 kts 23°
2026-04-19 20:30 22.35875 -19.40766 35963 ft 469 kts 23°
2026-04-19 20:30 22.41452 -19.37090 35961 ft 469 kts 23°
2026-04-19 20:31 22.47019 -19.33415 35962 ft 469 kts 23°
2026-04-19 20:31 22.52584 -19.29735 35960 ft 469 kts 23°
2026-04-19 20:32 22.58153 -19.26059 35988 ft 469 kts 24°
2026-04-19 20:32 22.63723 -19.22379 35978 ft 469 kts 24°
2026-04-19 20:33 22.69290 -19.18692 35974 ft 469 kts 24°
2026-04-19 20:33 22.74858 -19.14995 35972 ft 469 kts 24°
2026-04-19 20:34 22.80426 -19.11301 35966 ft 469 kts 24°
2026-04-19 20:34 22.85994 -19.07601 35971 ft 469 kts 24°
2026-04-19 20:35 22.91555 -19.03902 35990 ft 469 kts 25°
2026-04-19 20:35 22.97099 -19.00209 35979 ft 469 kts 25°
2026-04-19 20:36 23.02660 -18.96511 35974 ft 469 kts 25°
2026-04-19 20:36 23.08216 -18.92804 35970 ft 468 kts 25°
2026-04-19 20:37 23.13767 -18.89094 35968 ft 468 kts 25°
2026-04-19 20:37 23.19315 -18.85386 35966 ft 468 kts 25°
2026-04-19 20:38 23.24866 -18.81678 35979 ft 468 kts 25°
2026-04-19 20:38 23.30402 -18.77969 35971 ft 467 kts 25°
2026-04-19 20:39 23.35944 -18.74256 35968 ft 467 kts 25°
2026-04-19 20:39 23.41473 -18.70544 35961 ft 467 kts 25°
2026-04-19 20:40 23.46999 -18.66836 35961 ft 467 kts 25°
2026-04-19 20:40 23.52523 -18.63120 35958 ft 466 kts 25°
2026-04-19 20:41 23.58047 -18.59401 35953 ft 466 kts 25°
2026-04-19 20:41 23.63573 -18.55681 35954 ft 466 kts 25°
2026-04-19 20:42 23.69093 -18.51961 35954 ft 466 kts 25°
2026-04-19 20:42 23.74611 -18.48231 35953 ft 467 kts 25°
2026-04-19 20:43 23.80136 -18.44501 35960 ft 467 kts 25°
2026-04-19 20:43 23.85661 -18.40765 35959 ft 467 kts 25°
2026-04-19 20:44 23.91146 -18.37052 35974 ft 466 kts 26°
2026-04-19 20:44 23.96664 -18.33307 35958 ft 466 kts 26°
2026-04-19 20:45 24.02170 -18.29569 35961 ft 466 kts 26°
2026-04-19 20:45 24.07679 -18.25830 35964 ft 466 kts 26°
2026-04-19 20:46 24.13183 -18.22088 35958 ft 465 kts 26°
2026-04-19 20:46 24.18680 -18.18352 35950 ft 465 kts 26°
2026-04-19 20:47 24.23287 -18.15217 35976 ft 465 kts 26°
2026-04-19 20:47 24.28737 -18.11495 35965 ft 464 kts 26°
2026-04-19 20:48 24.34257 -18.07729 35970 ft 464 kts 26°
2026-04-19 20:48 24.39708 -18.04007 35965 ft 464 kts 26°
2026-04-19 20:49 24.45195 -18.00259 35958 ft 464 kts 26°
2026-04-19 20:49 24.50681 -17.96502 35954 ft 464 kts 26°
2026-04-19 20:50 24.56162 -17.92742 35972 ft 464 kts 26°
2026-04-19 20:50 24.61641 -17.88979 35968 ft 464 kts 26°
2026-04-19 20:51 24.67119 -17.85223 35957 ft 464 kts 26°
2026-04-19 20:51 24.72598 -17.81458 35951 ft 464 kts 26°
2026-04-19 20:52 24.78068 -17.77687 35951 ft 464 kts 26°
2026-04-19 20:52 24.83545 -17.73913 35957 ft 464 kts 26°
2026-04-19 20:53 24.89018 -17.70143 35972 ft 464 kts 27°
2026-04-19 20:53 24.94496 -17.66366 35962 ft 464 kts 27°
2026-04-19 20:54 24.99960 -17.62592 35957 ft 463 kts 27°
2026-04-19 20:54 25.05418 -17.58808 35950 ft 463 kts 27°
2026-04-19 20:55 25.10838 -17.55048 35947 ft 463 kts 27°
2026-04-19 20:55 25.16297 -17.51263 35945 ft 463 kts 27°
2026-04-19 20:56 25.21748 -17.47474 35967 ft 463 kts 27°
2026-04-19 20:56 25.27202 -17.43674 35956 ft 463 kts 27°
2026-04-19 20:57 25.32648 -17.39886 35952 ft 462 kts 27°
2026-04-19 20:57 25.38096 -17.36095 35949 ft 462 kts 27°
2026-04-19 20:58 25.43536 -17.32296 35943 ft 462 kts 27°
2026-04-19 20:58 25.48974 -17.28493 35939 ft 462 kts 27°
2026-04-19 20:59 25.54409 -17.24687 35959 ft 462 kts 27°
2026-04-19 20:59 25.59835 -17.20886 35948 ft 461 kts 27°
2026-04-19 21:00 25.65263 -17.17081 35941 ft 461 kts 27°
2026-04-19 21:00 25.70686 -17.13272 35939 ft 461 kts 27°
2026-04-19 21:01 25.76104 -17.09462 35935 ft 461 kts 27°
2026-04-19 21:01 25.81496 -17.05674 35936 ft 461 kts 27°
2026-04-19 21:02 25.86923 -17.01864 35949 ft 462 kts 27°
2026-04-19 21:02 25.92349 -16.98042 35941 ft 462 kts 27°
2026-04-19 21:03 25.97773 -16.94213 35941 ft 462 kts 27°
2026-04-19 21:03 26.03201 -16.90387 35936 ft 462 kts 27°
2026-04-19 21:04 26.08620 -16.86555 35929 ft 462 kts 27°
2026-04-19 21:04 26.14042 -16.82707 35930 ft 462 kts 27°
2026-04-19 21:05 26.19460 -16.78865 35948 ft 462 kts 27°
2026-04-19 21:05 26.24884 -16.75021 35944 ft 462 kts 27°
2026-04-19 21:06 26.30279 -16.71200 35941 ft 462 kts 27°
2026-04-19 21:06 26.35705 -16.67355 35944 ft 462 kts 27°
2026-04-19 21:07 26.41125 -16.63511 35938 ft 462 kts 27°
2026-04-19 21:07 26.46544 -16.59661 35933 ft 461 kts 27°
2026-04-19 21:08 26.51959 -16.55811 35944 ft 461 kts 27°
2026-04-19 21:08 26.57368 -16.51959 35938 ft 461 kts 27°
2026-04-19 21:09 26.62795 -16.48097 35930 ft 461 kts 27°
2026-04-19 21:09 26.68205 -16.44238 35927 ft 461 kts 27°
2026-04-19 21:10 26.73613 -16.40380 35926 ft 461 kts 27°
2026-04-19 21:10 26.79014 -16.36515 35917 ft 461 kts 28°
2026-04-19 21:11 26.84407 -16.32653 35926 ft 460 kts 27°
2026-04-19 21:11 26.89763 -16.28811 35915 ft 460 kts 27°
2026-04-19 21:12 26.95149 -16.24937 35915 ft 460 kts 27°
2026-04-19 21:12 27.00540 -16.21056 35908 ft 460 kts 28°
2026-04-19 21:13 27.05926 -16.17169 35896 ft 460 kts 28°
2026-04-19 21:13 27.11318 -16.13274 35900 ft 460 kts 28°
2026-04-19 21:14 27.16701 -16.09378 35916 ft 460 kts 28°
2026-04-19 21:14 27.22090 -16.05478 35906 ft 460 kts 28°
2026-04-19 21:15 27.27470 -16.01576 35910 ft 461 kts 28°
2026-04-19 21:15 27.32858 -15.97673 35911 ft 461 kts 28°
2026-04-19 21:16 27.38247 -15.93768 35905 ft 460 kts 28°
2026-04-19 21:16 27.43619 -15.89857 35900 ft 460 kts 28°
2026-04-19 21:17 27.48998 -15.85938 35898 ft 460 kts 28°
2026-04-19 21:17 27.54332 -15.82050 35894 ft 460 kts 28°
2026-04-19 21:18 27.59706 -15.78131 35879 ft 460 kts 28°
2026-04-19 21:18 27.65075 -15.74212 35879 ft 460 kts 28°
2026-04-19 21:19 27.70448 -15.70281 35880 ft 460 kts 28°
2026-04-19 21:19 27.75852 -15.66320 35879 ft 460 kts 28°
2026-04-19 21:20 27.81230 -15.62385 35884 ft 461 kts 28°
2026-04-19 21:20 27.86573 -15.58469 35880 ft 461 kts 28°
2026-04-19 21:21 27.91949 -15.54517 35877 ft 461 kts 28°
2026-04-19 21:21 27.97333 -15.50558 35877 ft 461 kts 28°
2026-04-19 21:22 28.02709 -15.46598 35875 ft 462 kts 28°
2026-04-19 21:22 28.08092 -15.42630 35888 ft 462 kts 28°
2026-04-19 21:23 28.13479 -15.38636 35863 ft 462 kts 28°
2026-04-19 21:23 28.18866 -15.34638 35874 ft 462 kts 28°
2026-04-19 21:24 28.24239 -15.30624 35872 ft 462 kts 28°
2026-04-19 21:24 28.29612 -15.26609 35871 ft 462 kts 28°
2026-04-19 21:25 28.34988 -15.22599 35871 ft 462 kts 28°
2026-04-19 21:25 28.40372 -15.18596 35905 ft 463 kts 28°
2026-04-19 21:26 28.45752 -15.14580 35893 ft 463 kts 28°
2026-04-19 21:26 28.51134 -15.10553 35889 ft 463 kts 28°
2026-04-19 21:27 28.56517 -15.06516 35888 ft 463 kts 28°
2026-04-19 21:27 28.61866 -15.02498 35889 ft 463 kts 28°
2026-04-19 21:28 28.67281 -14.98435 35885 ft 463 kts 28°
2026-04-19 21:28 28.72632 -14.94417 35903 ft 463 kts 29°
2026-04-19 21:29 28.78004 -14.90367 35904 ft 463 kts 29°
2026-04-19 21:29 28.83366 -14.86315 35901 ft 462 kts 29°
2026-04-19 21:30 28.88732 -14.82264 35896 ft 462 kts 29°
2026-04-19 21:30 28.93188 -14.78899 35896 ft 462 kts 29°
2026-04-19 21:31 28.98545 -14.74840 35893 ft 462 kts 29°
2026-04-19 21:31 29.03908 -14.70779 35906 ft 462 kts 29°
2026-04-19 21:32 29.09284 -14.66709 35900 ft 462 kts 29°
2026-04-19 21:32 29.14642 -14.62639 35892 ft 463 kts 29°
2026-04-19 21:33 29.19997 -14.58560 35890 ft 463 kts 29°
2026-04-19 21:33 29.25360 -14.54474 35893 ft 462 kts 30°
2026-04-19 21:34 29.30732 -14.50381 35890 ft 462 kts 29°
2026-04-19 21:34 29.36096 -14.46288 35890 ft 463 kts 30°
2026-04-19 21:35 29.41453 -14.42183 35885 ft 463 kts 30°
2026-04-19 21:35 29.46816 -14.38072 35881 ft 464 kts 30°
2026-04-19 21:36 29.52183 -14.33965 35883 ft 464 kts 30°
2026-04-19 21:36 29.57549 -14.29852 35886 ft 464 kts 30°
2026-04-19 21:37 29.62919 -14.25723 35901 ft 464 kts 30°
2026-04-19 21:37 29.68281 -14.21591 35893 ft 464 kts 30°
2026-04-19 21:38 29.73644 -14.17463 35890 ft 464 kts 30°
2026-04-19 21:38 29.79010 -14.13325 35891 ft 464 kts 30°
2026-04-19 21:39 29.84374 -14.09179 35889 ft 464 kts 30°
2026-04-19 21:39 29.89705 -14.05064 35890 ft 464 kts 30°
2026-04-19 21:40 29.97738 -13.98824 35885 ft 464 kts 30°
2026-04-19 21:41 30.03088 -13.94661 35885 ft 463 kts 30°
2026-04-19 21:41 30.08441 -13.90507 35887 ft 464 kts 30°
2026-04-19 21:42 30.13797 -13.86347 35887 ft 464 kts 30°
2026-04-19 21:42 30.19152 -13.82176 35888 ft 464 kts 30°
2026-04-19 21:43 30.24503 -13.77997 35906 ft 464 kts 31°
2026-04-19 21:43 30.29856 -13.73815 35898 ft 464 kts 31°
2026-04-19 21:44 30.35209 -13.69623 35893 ft 465 kts 31°
2026-04-19 21:44 30.40565 -13.65429 35892 ft 465 kts 31°
2026-04-19 21:45 30.45925 -13.61235 35898 ft 465 kts 31°
2026-04-19 21:45 30.51319 -13.57088 35902 ft 463 kts 26°
2026-04-19 21:46 30.57006 -13.53601 35918 ft 462 kts 24°
2026-04-19 21:46 30.62700 -13.50137 35912 ft 462 kts 24°
2026-04-19 21:47 30.68403 -13.46671 35912 ft 462 kts 24°
2026-04-19 21:47 30.74112 -13.43192 35914 ft 462 kts 24°
2026-04-19 21:48 30.79809 -13.39704 35914 ft 462 kts 24°
2026-04-19 21:48 30.85503 -13.36226 35925 ft 462 kts 24°
2026-04-19 21:49 30.91197 -13.32742 35922 ft 462 kts 24°
2026-04-19 21:49 30.96899 -13.29250 35929 ft 462 kts 24°
2026-04-19 21:50 31.02590 -13.25762 35927 ft 462 kts 24°
2026-04-19 21:50 31.08292 -13.22267 35929 ft 462 kts 24°
2026-04-19 21:51 31.13985 -13.18757 35951 ft 462 kts 24°
2026-04-19 21:51 31.19676 -13.15252 35940 ft 463 kts 24°
2026-04-19 21:52 31.25368 -13.11744 35940 ft 462 kts 24°
2026-04-19 21:52 31.31060 -13.08227 35936 ft 462 kts 24°
2026-04-19 21:53 31.36733 -13.04708 35945 ft 461 kts 24°
2026-04-19 21:53 31.42373 -13.01216 35956 ft 461 kts 24°
2026-04-19 21:54 31.48080 -12.97689 35956 ft 461 kts 24°
2026-04-19 21:54 31.53747 -12.94162 35952 ft 461 kts 25°
2026-04-19 21:55 31.59409 -12.90627 35957 ft 461 kts 24°
2026-04-19 21:55 31.65076 -12.87110 35956 ft 461 kts 24°
2026-04-19 21:56 31.70709 -12.83603 35970 ft 461 kts 25°
2026-04-19 21:56 31.76375 -12.80069 35962 ft 461 kts 25°
2026-04-19 21:57 31.82036 -12.76522 35950 ft 461 kts 25°
2026-04-19 21:57 31.87703 -12.72966 35954 ft 461 kts 25°
2026-04-19 21:58 31.93362 -12.69414 35956 ft 461 kts 25°
2026-04-19 21:58 31.99019 -12.65870 35976 ft 461 kts 25°
2026-04-19 21:59 32.04680 -12.62312 35973 ft 461 kts 25°
2026-04-19 21:59 32.10348 -12.58743 35965 ft 461 kts 25°
2026-04-19 22:00 32.16009 -12.55162 35964 ft 462 kts 25°
2026-04-19 22:00 32.21673 -12.51581 35960 ft 462 kts 25°
2026-04-19 22:01 32.27334 -12.48000 35972 ft 462 kts 25°
2026-04-19 22:01 32.33005 -12.44407 35963 ft 462 kts 25°
2026-04-19 22:02 32.38675 -12.40807 35959 ft 463 kts 25°
2026-04-19 22:02 32.44355 -12.37199 35956 ft 463 kts 26°
2026-04-19 22:03 32.50031 -12.33591 35960 ft 463 kts 26°
2026-04-19 22:03 32.55708 -12.29973 35982 ft 463 kts 26°
2026-04-19 22:04 32.61389 -12.26355 35975 ft 463 kts 26°
2026-04-19 22:04 32.67064 -12.22729 35978 ft 464 kts 26°
2026-04-19 22:05 32.72747 -12.19089 35976 ft 464 kts 26°
2026-04-19 22:05 32.78431 -12.15449 35985 ft 464 kts 26°
2026-04-19 22:06 32.84104 -12.11804 35986 ft 464 kts 26°
2026-04-19 22:06 32.89783 -12.08148 35990 ft 464 kts 26°
2026-04-19 22:07 32.94501 -12.05115 35987 ft 464 kts 26°
2026-04-19 22:07 33.01102 -12.00864 35993 ft 464 kts 26°
2026-04-19 22:08 33.06775 -11.97200 35992 ft 463 kts 26°
2026-04-19 22:08 33.11518 -11.94128 36008 ft 463 kts 27°
2026-04-19 22:09 33.17182 -11.90455 36001 ft 464 kts 27°
2026-04-19 22:09 33.22856 -11.86780 36006 ft 464 kts 27°
2026-04-19 22:10 33.28498 -11.83120 36007 ft 464 kts 27°
2026-04-19 22:10 33.34169 -11.79427 36010 ft 464 kts 27°
2026-04-19 22:11 33.39838 -11.75733 36020 ft 464 kts 27°
2026-04-19 22:11 33.45518 -11.72032 36015 ft 465 kts 27°
2026-04-19 22:12 33.51206 -11.68325 36017 ft 465 kts 27°
2026-04-19 22:12 33.56893 -11.64609 36021 ft 465 kts 27°
2026-04-19 22:13 33.62574 -11.60877 36013 ft 465 kts 27°
2026-04-19 22:13 33.68258 -11.57145 36038 ft 466 kts 28°
2026-04-19 22:14 33.73943 -11.53415 36035 ft 466 kts 27°
2026-04-19 22:14 33.79627 -11.49682 36029 ft 466 kts 28°
2026-04-19 22:15 33.85311 -11.45934 36031 ft 466 kts 28°
2026-04-19 22:15 33.90992 -11.42173 36027 ft 466 kts 28°
2026-04-19 22:16 33.96673 -11.38406 36039 ft 466 kts 28°
2026-04-19 22:16 34.02364 -11.34639 36028 ft 467 kts 28°
2026-04-19 22:17 34.08061 -11.30867 36021 ft 467 kts 28°
2026-04-19 22:17 34.13727 -11.27108 36015 ft 468 kts 29°
2026-04-19 22:18 34.19468 -11.23288 36023 ft 468 kts 29°
2026-04-19 22:18 34.25177 -11.19483 36029 ft 468 kts 29°
2026-04-19 22:19 34.30850 -11.15707 36016 ft 469 kts 29°
2026-04-19 22:19 34.36562 -11.11887 36017 ft 469 kts 29°
2026-04-19 22:20 34.42274 -11.08064 36018 ft 469 kts 29°
2026-04-19 22:20 34.47986 -11.04231 36018 ft 469 kts 29°
2026-04-19 22:21 34.53695 -11.00396 36039 ft 469 kts 29°
2026-04-19 22:21 34.59399 -10.96556 36027 ft 468 kts 29°
2026-04-19 22:22 34.65097 -10.92724 36030 ft 467 kts 28°
2026-04-19 22:22 34.70785 -10.88888 36036 ft 466 kts 29°
2026-04-19 22:23 34.76448 -10.85051 36044 ft 466 kts 29°
2026-04-19 22:23 34.82111 -10.81204 36024 ft 466 kts 29°
2026-04-19 22:24 34.87784 -10.77357 36020 ft 466 kts 28°
2026-04-19 22:24 34.93456 -10.73517 36018 ft 467 kts 28°
2026-04-19 22:25 34.99142 -10.69659 36019 ft 467 kts 29°
2026-04-19 22:25 35.04813 -10.65800 36025 ft 467 kts 29°
2026-04-19 22:26 35.10483 -10.61923 36020 ft 468 kts 29°
2026-04-19 22:26 35.16131 -10.58064 36017 ft 468 kts 29°
2026-04-19 22:27 35.21808 -10.54180 36023 ft 467 kts 29°
2026-04-19 22:27 35.27473 -10.50293 36044 ft 466 kts 29°
2026-04-19 22:28 35.33128 -10.46411 36046 ft 466 kts 29°
2026-04-19 22:28 35.38779 -10.42523 36047 ft 465 kts 29°
2026-04-19 22:29 35.44418 -10.38634 36045 ft 465 kts 29°
2026-04-19 22:29 35.50049 -10.34748 36041 ft 464 kts 29°
2026-04-19 22:30 35.55680 -10.30854 36039 ft 464 kts 29°
2026-04-19 22:30 35.61312 -10.26951 36036 ft 464 kts 29°
2026-04-19 22:31 35.66937 -10.23048 36035 ft 464 kts 29°
2026-04-19 22:31 35.72566 -10.19147 36016 ft 465 kts 29°
2026-04-19 22:32 35.78168 -10.15252 36016 ft 466 kts 29°
2026-04-19 22:32 35.83812 -10.11319 36027 ft 466 kts 30°
2026-04-19 22:33 35.89461 -10.07368 36028 ft 467 kts 30°
2026-04-19 22:33 35.95107 -10.03409 36032 ft 467 kts 30°
2026-04-19 22:34 36.00766 -9.99463 36028 ft 467 kts 30°
2026-04-19 22:34 36.06433 -9.95533 36034 ft 467 kts 30°
2026-04-19 22:35 36.12106 -9.91601 36041 ft 467 kts 30°
2026-04-19 22:35 36.17776 -9.87655 36045 ft 468 kts 30°
2026-04-19 22:36 36.23408 -9.83720 36043 ft 468 kts 30°
2026-04-19 22:36 36.29073 -9.79746 36039 ft 468 kts 30°
2026-04-19 22:37 36.34731 -9.75772 36052 ft 468 kts 30°
2026-04-19 22:37 36.40391 -9.71797 36046 ft 467 kts 30°
2026-04-19 22:38 36.46047 -9.67814 36043 ft 467 kts 30°
2026-04-19 22:38 36.51698 -9.63823 36043 ft 467 kts 30°
2026-04-19 22:39 36.57349 -9.59842 36047 ft 467 kts 30°
2026-04-19 22:39 36.63003 -9.55845 36050 ft 467 kts 30°
2026-04-19 22:40 36.68651 -9.51836 36046 ft 467 kts 30°
2026-04-19 22:40 36.74300 -9.47836 36042 ft 467 kts 30°
2026-04-19 22:41 36.79948 -9.43823 36042 ft 467 kts 30°
2026-04-19 22:41 36.85592 -9.39802 36049 ft 466 kts 30°
2026-04-19 22:42 36.91232 -9.35780 36054 ft 466 kts 29°
2026-04-19 22:42 36.96829 -9.31792 36053 ft 466 kts 29°
2026-04-19 22:43 37.02463 -9.27759 36014 ft 467 kts 30°
2026-04-19 22:43 37.05301 -9.25726 35123 ft 474 kts 30°
2026-04-19 22:43 37.08180 -9.23659 34185 ft 479 kts 30°
2026-04-19 22:43 37.11071 -9.21580 33303 ft 480 kts 30°
2026-04-19 22:44 37.13958 -9.19502 32684 ft 475 kts 30°
2026-04-19 22:44 37.16783 -9.17470 32652 ft 464 kts 30°
2026-04-19 22:44 37.19603 -9.15442 32048 ft 469 kts 30°
2026-04-19 22:44 37.22421 -9.13412 31385 ft 466 kts 29°
2026-04-19 22:45 37.25339 -9.11699 30741 ft 462 kts 17°
2026-04-19 22:45 37.28469 -9.10932 30107 ft 456 kts
2026-04-19 22:45 37.31621 -9.11063 29377 ft 451 kts 354°
2026-04-19 22:45 37.34737 -9.11360 28665 ft 448 kts 354°
2026-04-19 22:46 37.37833 -9.11668 27979 ft 445 kts 354°
2026-04-19 22:46 37.40869 -9.11975 27289 ft 441 kts 354°
2026-04-19 22:46 37.43935 -9.12281 26397 ft 443 kts 354°
2026-04-19 22:46 37.47011 -9.12588 25634 ft 443 kts 354°
2026-04-19 22:47 37.50030 -9.12883 24838 ft 428 kts 354°
2026-04-19 22:47 37.52980 -9.13169 23655 ft 420 kts 354°
2026-04-19 22:47 37.55866 -9.13449 22291 ft 412 kts 354°
2026-04-19 22:47 37.58667 -9.13721 21571 ft 390 kts 354°
2026-04-19 22:48 37.61267 -9.13970 21305 ft 361 kts 354°
2026-04-19 22:48 37.63704 -9.14204 20893 ft 341 kts 354°
2026-04-19 22:48 37.66030 -9.14430 20485 ft 332 kts 354°
2026-04-19 22:48 37.68317 -9.14653 20083 ft 328 kts 354°
2026-04-19 22:49 37.70588 -9.14876 19666 ft 326 kts 354°
2026-04-19 22:49 37.72843 -9.15099 19261 ft 324 kts 354°
2026-04-19 22:49 37.75078 -9.15322 18858 ft 322 kts 354°
2026-04-19 22:49 37.77303 -9.15543 18455 ft 320 kts 354°
2026-04-19 22:50 37.79517 -9.15764 18021 ft 318 kts 354°
2026-04-19 22:50 37.81716 -9.15982 17618 ft 315 kts 354°
2026-04-19 22:50 37.83890 -9.16199 17235 ft 312 kts 354°
2026-04-19 22:50 37.86042 -9.16411 16847 ft 309 kts 354°
2026-04-19 22:51 37.88173 -9.16621 16473 ft 306 kts 354°
2026-04-19 22:51 37.92377 -9.17039 15727 ft 301 kts 354°
2026-04-19 22:51 37.94453 -9.17248 15361 ft 298 kts 354°
2026-04-19 22:52 37.95819 -9.17384 15118 ft 297 kts 354°
2026-04-19 22:52 37.97870 -9.17584 14755 ft 294 kts 354°
2026-04-19 22:52 37.99905 -9.17779 14395 ft 292 kts 354°
2026-04-19 22:52 38.01926 -9.17974 14029 ft 291 kts 354°
2026-04-19 22:53 38.04585 -9.18236 13526 ft 288 kts 354°
2026-04-19 22:53 38.06572 -9.18434 13148 ft 284 kts 354°
2026-04-19 22:53 38.08520 -9.18629 12788 ft 280 kts 354°
2026-04-19 22:53 38.09828 -9.18759 12545 ft 278 kts 354°
2026-04-19 22:54 38.11745 -9.18948 12190 ft 275 kts 354°
2026-04-19 22:54 38.13619 -9.19133 11836 ft 273 kts 354°
2026-04-19 22:54 38.15526 -9.19322 11480 ft 270 kts 354°
2026-04-19 22:54 38.17368 -9.19504 11129 ft 268 kts 354°
2026-04-19 22:55 38.19222 -9.19687 10775 ft 266 kts 354°
2026-04-19 22:55 38.21060 -9.19870 10423 ft 264 kts 354°
2026-04-19 22:55 38.22849 -9.20048 10319 ft 251 kts 353°
2026-04-19 22:55 38.24548 -9.20217 10223 ft 238 kts 353°
2026-04-19 22:56 38.26172 -9.20377 10127 ft 232 kts 353°
2026-04-19 22:56 38.27778 -9.20538 9974 ft 232 kts 353°
2026-04-19 22:56 38.29407 -9.20703 9508 ft 237 kts 354°
2026-04-19 22:56 38.31057 -9.20871 9103 ft 239 kts 354°
2026-04-19 22:57 38.32720 -9.21041 8695 ft 241 kts 354°
2026-04-19 22:57 38.34396 -9.21211 8302 ft 242 kts 354°
2026-04-19 22:57 38.36085 -9.21380 7893 ft 244 kts 354°
2026-04-19 22:57 38.37787 -9.21552 7486 ft 247 kts 354°
2026-04-19 22:58 38.39506 -9.21725 7073 ft 249 kts 354°
2026-04-19 22:58 38.41241 -9.21898 6657 ft 251 kts 354°
2026-04-19 22:58 38.42992 -9.22074 6225 ft 254 kts 354°
2026-04-19 22:58 38.44760 -9.22249 5789 ft 256 kts 354°
2026-04-19 22:59 38.46540 -9.22422 5362 ft 257 kts 355°
2026-04-19 22:59 38.48332 -9.22598 4933 ft 259 kts 355°
2026-04-19 22:59 38.50131 -9.22861 4367 ft 264 kts 343°
2026-04-19 22:59 38.51804 -9.23683 4209 ft 252 kts 338°
2026-04-19 23:00 38.53444 -9.24484 4105 ft 254 kts 341°
2026-04-19 23:00 38.55148 -9.24932 3938 ft 244 kts
2026-04-19 23:00 38.56833 -9.24548 4031 ft 250 kts 15°
2026-04-19 23:00 38.58516 -9.23960 4056 ft 251 kts 15°
2026-04-19 23:01 38.60183 -9.23302 4036 ft 253 kts 20°
2026-04-19 23:01 38.61838 -9.22529 3641 ft 254 kts 21°
2026-04-19 23:01 38.63424 -9.21675 3240 ft 239 kts 25°
2026-04-19 23:01 38.64853 -9.20744 2835 ft 224 kts 28°
2026-04-19 23:02 38.66205 -9.19847 2486 ft 211 kts 25°
2026-04-19 23:02 38.67475 -9.19199 2389 ft 181 kts 18°
2026-04-19 23:02 38.68608 -9.18769 2177 ft 163 kts 17°
2026-04-19 23:02 38.69654 -9.18269 1823 ft 156 kts 22°
2026-04-19 23:03 38.70610 -9.17685 1526 ft 149 kts 24°
2026-04-19 23:03 38.71512 -9.17120 1355 ft 142 kts 26°
2026-04-19 23:03 38.72390 -9.16624 1224 ft 139 kts 21°
2026-04-19 23:03 38.73291 -9.16182 1035 ft 138 kts 19°
2026-04-19 23:04 38.74171 -9.15701 871 ft 141 kts 22°
2026-04-19 23:04 38.75107 -9.15171 693 ft 153 kts 18°
2026-04-19 23:04 38.76090 -9.14677 502 ft 147 kts 20°
2026-04-19 23:04 38.77014 -9.14188 355 ft 138 kts 20°
2026-04-19 23:05 38.77740 -9.13803 366 ft 83 kts 22°
2026-04-19 23:05 38.78109 -9.13606 367 ft 35 kts 22°
2026-04-19 23:05 38.78248 -9.13510 367 ft 13 kts 41°
2026-04-19 23:05 38.78336 -9.13402 364 ft 8 kts 46°
2026-04-19 23:06 38.78361 -9.13369 363 ft 5 kts 46°
2026-04-19 23:06 38.78369 -9.13358 363 ft 1 kts 49°
2026-04-19 23:06 38.78374 -9.13350 363 ft 2 kts 53°
2026-04-19 23:06 38.78383 -9.13334 366 ft 3 kts 53°
2026-04-19 23:07 38.78383 -9.13315 362 ft 2 kts 105°
2026-04-19 23:07 38.78370 -9.13292 367 ft 4 kts 133°
2026-04-19 23:07 38.78365 -9.13286 365 ft 2 kts 136°
2026-04-19 23:07 38.78345 -9.13267 363 ft 5 kts 155°
2026-04-19 23:08 38.78321 -9.13269 361 ft 0 kts 196°
2026-04-19 23:08 38.78293 -9.13280 362 ft 8 kts 199°
2026-04-19 23:09 38.78243 -9.13304 360 ft 8 kts 201°
2026-04-19 23:09 38.78192 -9.13330 360 ft 8 kts 201°
2026-04-19 23:09 38.78148 -9.13352 360 ft 2 kts 201°
2026-04-19 23:09 38.78137 -9.13357 360 ft 1 kts 201°
2026-04-19 23:10 38.78130 -9.13361 359 ft 1 kts 201°
2026-04-19 23:10 38.78112 -9.13369 364 ft 7 kts 201°
2026-04-19 23:10 38.78063 -9.13393 364 ft 7 kts 201°
2026-04-19 23:10 38.78017 -9.13417 361 ft 7 kts 202°
2026-04-19 23:11 38.77972 -9.13444 358 ft 7 kts 205°
2026-04-19 23:11 38.77927 -9.13471 356 ft 7 kts 205°
2026-04-19 23:11 38.77884 -9.13496 359 ft 7 kts 205°
2026-04-19 23:11 38.77842 -9.13519 362 ft 7 kts 202°
2026-04-19 23:12 38.77800 -9.13541 356 ft 7 kts 201°
2026-04-19 23:12 38.77757 -9.13562 359 ft 6 kts 201°
2026-04-19 23:12 38.77719 -9.13582 357 ft 6 kts 202°
2026-04-19 23:12 38.77687 -9.13598 360 ft 4 kts 203°
2026-04-19 23:13 38.77667 -9.13611 357 ft 3 kts 205°
2026-04-19 23:13 38.77636 -9.13628 361 ft 5 kts 202°
2026-04-19 23:13 38.77607 -9.13643 359 ft 4 kts 202°
2026-04-19 23:13 38.77553 -9.13671 359 ft 13 kts 202°
2026-04-19 23:14 38.77473 -9.13713 363 ft 12 kts 202°
2026-04-19 23:14 38.77392 -9.13759 359 ft 13 kts 204°
2026-04-19 23:14 38.77302 -9.13808 357 ft 14 kts 202°
2026-04-19 23:14 38.77210 -9.13857 359 ft 14 kts 202°
2026-04-19 23:15 38.77120 -9.13902 360 ft 13 kts 190°
2026-04-19 23:15 38.77037 -9.13885 358 ft 12 kts 169°
2026-04-19 23:15 38.76950 -9.13861 349 ft 13 kts 167°
2026-04-19 23:15 38.76854 -9.13834 347 ft 15 kts 168°
2026-04-19 23:16 38.76750 -9.13807 345 ft 16 kts 168°
2026-04-19 23:16 38.76666 -9.13784 345 ft 11 kts 168°
2026-04-19 23:16 38.76610 -9.13820 351 ft 9 kts 245°
2026-04-19 23:16 38.76588 -9.13890 346 ft 8 kts 251°
2026-04-19 23:17 38.76577 -9.13960 348 ft 8 kts 259°
2026-04-19 23:17 38.76566 -9.14029 350 ft 8 kts 259°
2026-04-19 23:17 38.76564 -9.14108 343 ft 10 kts 274°
2026-04-19 23:17 38.76595 -9.14161 345 ft 6 kts 333°
2026-04-19 23:18 38.76634 -9.14160 351 ft 5 kts 21°
2026-04-19 23:18 38.76666 -9.14146 347 ft 4 kts 16°
2026-04-19 23:18 38.76703 -9.14129 352 ft 6 kts 20°
2026-04-19 23:18 38.76741 -9.14109 347 ft 5 kts 24°
2026-04-19 23:19 38.76771 -9.14091 348 ft 4 kts 24°
2026-04-19 23:19 38.76833 -9.14057 352 ft 12 kts 23°
2026-04-19 23:19 38.76893 -9.14024 352 ft 7 kts 23°
2026-04-19 23:19 38.76932 -9.14003 349 ft 6 kts 22°
2026-04-19 23:20 38.77006 -9.13964 356 ft 14 kts 22°
2026-04-19 23:20 38.77089 -9.13921 358 ft 12 kts 22°
2026-04-19 23:20 38.77160 -9.13884 358 ft 10 kts 22°
2026-04-19 23:20 38.77231 -9.13834 359 ft 16 kts 44°
2026-04-19 23:21 38.77266 -9.13683 354 ft 19 kts 79°
2026-04-19 23:21 38.77281 -9.13522 347 ft 17 kts 104°
2026-04-19 23:21 38.77217 -9.13481 346 ft 8 kts 169°
2026-04-19 23:21 38.77144 -9.13461 346 ft 16 kts 168°
2026-04-19 23:22 38.77027 -9.13429 345 ft 19 kts 167°
2026-04-19 23:22 38.76891 -9.13391 343 ft 19 kts 168°
2026-04-19 23:22 38.76795 -9.13368 343 ft 10 kts 172°
2026-04-19 23:22 38.76735 -9.13393 350 ft 9 kts 212°
2026-04-19 23:23 38.76668 -9.13456 347 ft 12 kts 232°
2026-04-19 23:23 38.76642 -9.13555 354 ft 12 kts 258°
2026-04-19 23:23 38.76624 -9.13667 349 ft 13 kts 258°
2026-04-19 23:23 38.76603 -9.13796 346 ft 16 kts 258°
2026-04-19 23:24 38.76577 -9.13913 351 ft 11 kts 232°
2026-04-19 23:24 38.76525 -9.13911 352 ft 6 kts 124°
2026-04-19 23:24 38.76518 -9.13862 348 ft 4 kts 111°
2026-04-19 23:24 38.76497 -9.13846 354 ft 3 kts 159°
2026-04-19 23:25 38.76476 -9.13840 348 ft 3 kts 168°
2026-04-19 23:25 38.76457 -9.13835 348 ft 2 kts 168°
2026-04-19 23:25 38.76450 -9.13833 348 ft 1 kts 168°
2026-04-19 23:25 38.76446 -9.13832 348 ft 0 kts 168°